Theta_e
310 309 309 308 307 306 306 305 305 305 305 303 303 302 302 302 302 302 301 301 301 301 300 299 298 298 298 299 299 299 299 299 300 300 300 300 300 300 300 300 300 300 300 300 299 299 299 299 299 299 299 299 299 298 298 299 298 298 298 297 297 297 297 297 297 297 297 296 296
309 309 309 308 307 306 305 305 305 305 304 303 303 303 302 302 302 301 301 301 301 300 299 298 298 298 298 298 298 299 299 299 299 299 299 299 299 300 300 300 300 300 299 299 299 299 299 299 299 298 298 298 298 298 298 298 299 298 297 297 297 297 297 296 296 297 297 296 297
309 309 308 307 306 305 305 304 303 303 303 303 303 303 303 302 302 301 301 301 300 299 298 297 297 297 298 298 298 299 299 299 299 299 299 299 299 299 299 299 299 299 299 299 299 299 299 299 299 298 298 298 298 298 298 298 298 298 297 297 297 297 296 296 296 297 297 296 297
308 307 307 306 305 305 304 303 303 303 302 302 302 303 302 302 302 301 301 300 299 298 298 297 297 297 297 298 298 299 299 300 299 299 299 299 299 299 299 299 299 299 299 299 299 299 299 299 299 298 298 298 298 298 298 298 298 297 297 297 297 297 296 296 297 297 297 296 297
307 307 306 306 305 305 304 304 303 302 302 302 302 302 302 302 301 301 300 299 298 298 298 298 297 297 297 298 298 299 299 300 300 299 299 299 299 299 299 299 299 299 299 299 299 299 299 299 298 298 298 298 298 298 298 298 297 297 297 297 297 297 296 296 296 297 296 297 297
306 306 306 305 305 304 304 303 303 302 302 302 302 302 301 301 300 299 299 298 298 298 298 298 298 298 298 298 298 299 299 300 300 300 299 299 299 299 299 299 299 299 299 299 299 299 298 298 298 298 298 298 298 298 298 298 297 297 297 297 297 297 297 296 297 297 297 297 297
305 305 305 304 304 304 303 303 303 302 302 302 302 301 301 300 299 299 298 298 297 297 298 298 298 298 298 298 298 298 299 299 299 299 299 299 299 299 299 299 299 299 299 299 299 298 298 298 298 298 297 297 297 298 298 298 297 297 297 296 297 297 297 297 297 297 297 297 297
305 304 304 304 303 303 303 303 303 302 302 302 302 301 300 299 299 298 298 297 297 297 298 298 298 298 298 298 298 298 298 298 298 299 299 299 299 299 298 298 298 298 298 299 298 298 298 298 298 297 297 297 297 297 297 297 297 296 296 296 297 297 297 298 298 297 297 297 297
304 304 304 303 303 303 303 303 303 303 302 302 301 300 299 299 298 297 297 297 297 298 298 298 298 298 298 298 298 298 298 298 298 298 298 299 298 298 298 298 298 298 298 298 298 298 298 297 297 297 297 297 297 297 297 297 296 296 296 296 297 297 297 298 298 298 298 297 297
303 303 303 303 303 303 303 303 303 302 302 301 300 299 299 299 298 297 297 297 298 298 298 298 298 298 298 298 298 298 298 298 298 298 298 298 298 298 298 298 298 298 298 298 298 298 297 297 297 297 298 297 297 297 297 297 296 296 296 296 296 297 297 298 298 298 298 298 297
303 303 303 303 302 303 302 302 302 301 300 300 299 299 298 298 298 298 298 298 298 297 297 297 297 297 297 297 297 297 298 298 298 298 298 298 298 298 298 298 298 298 297 298 298 298 298 297 297 297 297 297 297 297 297 296 296 296 296 296 297 297 297 298 298 298 298 298 297
302 302 302 302 302 302 301 301 300 300 299 298 298 298 298 298 298 298 298 297 297 296 296 296 297 297 297 297 297 297 297 297 298 298 298 298 298 298 298 297 297 297 297 297 298 298 297 297 297 297 297 297 297 297 297 296 296 296 296 297 297 297 297 297 298 298 299 298 298
301 301 301 301 301 300 300 300 299 299 298 298 298 297 298 298 298 297 297 297 296 296 295 295 296 297 297 297 297 297 297 297 297 297 298 297 297 297 297 297 297 297 297 298 298 297 297 297 297 297 297 297 297 297 297 296 296 296 296 297 297 297 297 297 298 298 299 299 298
300 299 299 300 299 299 299 299 298 298 298 297 297 297 297 297 297 297 297 296 296 296 295 295 296 297 297 297 297 297 297 297 297 298 297 297 297 297 297 297 298 297 297 298 298 297 297 297 297 297 297 297 297 297 297 296 296 296 296 297 297 297 297 298 298 298 298 298 298
299 299 299 299 299 298 298 298 298 297 297 297 297 297 297 297 297 297 297 297 296 296 296 296 297 297 297 297 297 298 298 298 297 297 297 297 297 297 298 298 298 297 298 298 298 297 297 297 297 297 297 297 296 297 297 297 297 297 297 297 297 297 298 298 298 298 298 298 298
298 298 298 298 298 298 298 297 297 297 297 297 297 297 296 296 297 297 297 297 297 297 297 297 297 297 297 297 298 298 298 297 297 297 297 298 297 298 298 298 298 298 298 297 297 297 297 297 297 297 297 297 297 297 297 297 297 297 298 298 298 298 298 298 298 298 298 298 298
298 298 298 298 298 298 297 297 297 297 297 297 297 296 296 297 297 297 297 297 297 297 297 297 298 298 298 298 298 298 298 298 298 298 298 298 298 298 298 298 298 298 298 297 297 297 297 298 298 298 297 297 297 297 297 297 297 298 298 298 298 298 298 298 298 298 298 298 298
298 298 298 298 298 298 298 298 298 298 297 297 297 297 297 297 297 297 298 298 298 298 298 298 298 298 298 298 298 298 298 298 298 298 298 298 298 298 298 298 298 298 298 297 297 297 298 298 298 298 298 298 297 297 297 298 298 298 298 299 299 299 299 299 299 299 299 299 299
298 299 299 299 299 299 299 299 298 298 298 298 298 298 298 298 298 298 298 299 299 299 298 298 299 299 299 298 298 299 299 299 298 298 299 298 298 298 298 298 298 298 298 297 297 298 298 298 298 298 298 298 298 298 298 298 298 299 299 299 299 299 299 299 299 299 299 299 299
299 299 299 300 300 300 300 300 299 299 299 299 299 298 299 299 299 299 299 299 299 299 299 299 299 299 299 299 299 299 299 299 299 299 298 298 298 298 298 298 298 298 298 298 298 298 298 298 298 298 298 298 298 299 299 299 299 299 299 300 299 299 299 298 298 299 300 300 300
299 300 300 300 300 300 300 300 299 299 299 299 299 299 299 299 299 299 299 299 299 299 299 299 299 299 299 299 299 299 299 299 299 299 298 298 298 298 298 298 298 298 298 298 298 298 298 298 298 298 299 299 299 299 300 300 300 300 300 300 300 299 298 298 298 299 300 300 300
300 300 300 300 300 300 300 300 300 299 299 299 299 299 299 299 299 299 299 300 300 299 299 300 299 299 299 299 299 299 299 299 299 299 298 298 298 298 298 298 298 298 298 298 298 298 298 298 299 299 299 300 300 300 300 300 300 300 300 301 301 300 299 299 299 300 300 301 301
300 301 301 301 301 300 300 300 300 299 299 299 299 299 299 299 299 299 299 299 299 299 300 300 300 300 300 300 299 299 299 299 299 299 299 298 298 298 298 298 298 298 298 298 299 299 299 299 300 300 301 301 301 301 301 301 301 301 301 301 301 301 300 300 300 300 301 301 302
300 301 301 301 301 301 300 300 300 300 300 299 299 299 299 299 299 299 299 299 299 299 300 300 300 300 300 299 299 299 299 298 298 298 298 298 298 298 298 298 298 299 299 300 299 299 300 300 300 301 301 301 301 301 301 302 301 301 301 301 301 301 301 301 301 302 302 302 302
300 300 300 300 300 300 300 300 300 300 300 300 300 300 299 299 298 298 298 298 299 299 299 299 300 300 300 299 299 299 298 298 298 298 298 298 298 299 299 299 299 299 299 299 299 299 300 300 301 301 301 301 301 301 301 301 301 301 301 301 301 301 301 301 302 302 302 302 302
299 299 299 299 299 299 300 300 300 300 300 300 300 299 299 299 298 298 298 298 299 299 299 299 299 299 299 299 298 298 298 298 298 298 298 298 298 299 299 299 299 300 300 299 299 299 300 300 300 301 301 302 301 301 301 301 302 302 302 302 302 301 301 301 300 300 301 300 301
299 299 299 299 299 299 300 300 300 300 300 300 299 299 299 299 299 298 298 299 299 299 299 299 299 299 299 299 298 298 298 298 298 298 298 298 298 298 299 299 299 300 299 299 299 299 300 300 301 301 301 302 301 302 302 302 302 302 302 302 302 301 301 300 300 299 299 299 300
299 299 299 299 299 299 300 300 300 300 300 300 300 299 299 299 299 299 299 299 299 299 299 299 299 299 299 299 298 298 298 299 299 299 299 299 298 298 298 299 299 299 299 298 299 299 300 300 301 301 301 301 302 302 303 302 302 302 302 302 301 301 300 300 299 299 299 299 299
300 300 299 299 299 299 300 300 300 300 300 300 300 300 299 299 299 299 299 299 299 299 299 299 299 299 299 299 299 299 299 299 299 299 299 299 299 299 298 299 299 298 298 298 299 299 300 300 301 301 301 301 301 301 302 302 302 302 301 301 301 300 299 299 299 298 298 298 298
300 300 299 299 299 300 300 300 300 300 300 300 300 299 299 299 299 299 299 299 299 299 300 300 299 299 299 299 299 299 299 299 299 299 299 298 298 298 298 298 298 299 298 298 298 299 300 300 300 301 301 300 300 301 302 302 301 300 300 300 299 299 299 299 298 298 298 297 298
300 300 300 300 300 300 300 300 300 300 300 299 299 299 298 298 299 299 299 299 300 300 300 300 299 299 299 299 299 299 299 299 299 299 298 298 298 298 298 298 298 298 298 297 298 299 299 300 300 300 300 300 300 300 301 301 301 300 299 299 299 299 298 298 298 298 298 297 297
300 300 300 300 300 300 300 300 300 300 299 299 298 299 299 298 299 299 300 300 300 300 300 299 299 299 299 299 299 299 299 299 299 299 298 298 298 298 298 298 298 298 298 297 298 298 299 299 299 300 300 300 300 300 301 301 300 300 299 299 299 299 298 298 298 298 297 297 297
300 300 300 300 300 300 300 300 299 299 299 298 298 299 299 299 300 300 300 300 300 300 299 299 299 299 299 299 299 299 299 299 299 298 298 298 298 297 297 297 298 298 297 297 298 298 299 299 299 299 299 300 300 300 300 300 300 299 299 298 298 298 298 298 298 298 298 298 298
300 300 300 301 301 301 301 300 299 299 299 298 298 299 299 300 300 300 300 300 300 300 300 300 300 299 299 299 299 299 298 299 299 299 298 298 297 297 297 297 298 298 297 297 298 298 298 298 299 299 299 299 299 299 299 299 299 298 298 298 298 298 298 299 298 298 298 299 299
300 300 300 301 301 301 300 300 299 299 298 298 298 299 299 300 300 300 300 299 300 300 299 300 299 299 299 299 299 298 298 298 298 298 298 297 297 297 296 296 297 297 297 297 297 298 298 298 298 299 299 299 299 299 299 298 298 298 298 297 297 298 298 299 299 299 299 299 299
300 300 300 301 301 301 300 299 299 299 298 299 299 299 300 300 300 300 300 300 300 299 299 299 299 299 298 298 298 298 298 298 297 297 297 297 297 296 296 296 296 297 296 297 297 297 298 298 298 298 298 298 299 299 299 299 298 298 297 297 298 298 299 299 299 299 299 299 299
300 300 300 300 301 301 300 300 299 299 299 299 299 300 300 300 300 300 300 300 300 299 299 299 299 298 298 299 298 298 298 298 297 297 297 297 296 296 296 296 296 296 296 297 297 297 297 298 298 298 298 298 298 298 298 298 298 297 297 297 298 298 299 299 299 299 299 299 299
300 300 300 301 301 300 300 300 299 299 299 300 300 300 300 300 300 300 300 300 299 299 299 299 299 299 299 299 299 298 298 297 297 297 296 296 296 296 295 295 296 296 297 297 297 297 297 297 297 298 298 298 298 298 298 298 298 298 298 298 298 299 300 300 300 300 300 300 299
300 300 301 301 301 301 300 300 300 300 300 301 301 301 301 300 300 300 299 300 300 300 299 299 299 299 299 299 298 298 298 298 297 297 296 296 296 296 296 295 296 296 296 296 296 296 297 297 297 297 298 298 297 297 297 297 298 298 298 298 299 299 300 300 300 300 300 300 300
300 301 301 301 301 301 300 300 300 300 301 301 301 301 301 300 300 299 299 300 300 300 300 299 299 299 299 298 298 297 297 297 297 297 296 296 296 296 296 296 296 296 296 296 296 296 296 297 297 297 297 297 297 297 297 298 298 298 298 299 299 299 299 299 300 299 300 300 300
301 301 301 301 301 301 301 300 300 301 301 302 302 301 301 300 300 299 299 299 299 299 299 299 299 299 298 297 297 297 297 297 297 297 296 296 296 296 296 296 295 295 295 295 295 296 296 297 297 297 297 297 297 297 297 298 297 297 298 298 299 299 299 299 299 299 299 300 300
Wind_Speed
10 9 8 8 8 7 7 8 8 7 6 6 6 6 6 7 6 6 5 5 5 5 4 3 2 2 2 2 2 3 3 3 4 4 5 5 5 5 5 4 4 4 3 3 3 2 1 1 1 1 0 0 0 0 0 0 1 1 1 1 1 2 2 3 3 2 2 2 2
11 11 10 10 10 8 8 7 7 7 6 5 6 6 7 6 6 6 6 5 5 5 4 3 3 2 3 3 3 3 4 4 5 5 5 5 5 5 4 4 4 3 3 3 2 2 1 1 0 0 0 0 0 0 1 0 1 2 2 2 2 2 2 3 3 3 2 3 2
12 11 11 10 10 9 8 7 7 7 7 6 6 6 6 6 5 5 5 5 5 5 4 3 3 3 4 4 4 4 4 4 5 5 5 5 5 5 4 4 4 4 3 2 2 1 1 0 0 0 0 1 1 1 1 1 1 2 2 2 2 2 2 2 2 2 2 2 3
12 11 11 11 12 11 10 8 9 9 8 6 6 6 6 5 5 5 5 6 6 5 5 4 4 4 4 5 5 5 5 5 5 5 5 5 5 5 5 4 4 4 3 2 2 1 0 0 1 1 1 1 2 1 1 1 1 2 2 2 2 2 2 2 2 2 2 2 3
11 10 10 10 12 11 10 9 10 9 8 7 6 6 5 5 4 5 5 5 5 5 6 6 5 5 5 6 6 6 6 6 5 5 5 5 5 5 5 5 4 3 3 2 1 1 0 1 1 1 1 1 2 1 1 1 2 2 2 2 2 2 2 3 2 2 2 2 3
10 10 10 10 11 11 10 9 10 10 8 7 7 7 6 5 5 5 6 6 6 6 7 7 7 6 6 6 7 6 6 5 5 5 5 5 5 5 5 4 3 3 2 2 1 1 1 1 1 1 1 1 2 2 2 2 3 3 3 3 2 2 2 3 2 2 2 3 3
10 10 10 11 11 11 10 10 10 9 9 8 8 8 8 7 7 7 7 7 6 6 7 6 6 6 7 7 7 6 6 5 5 5 5 5 5 5 5 4 3 3 2 1 1 1 1 2 2 2 2 2 2 2 3 3 3 4 4 4 2 2 2 3 2 2 3 4 4
10 11 11 11 11 12 12 11 10 9 8 7 8 9 10 9 10 9 8 7 6 6 6 5 7 7 7 7 7 6 6 6 6 5 5 5 5 5 4 4 3 3 2 1 1 1 1 2 2 2 2 2 2 3 3 4 4 5 5 5 3 2 2 2 2 3 3 4 4
10 10 11 11 11 11 12 12 11 10 9 9 9 10 11 11 10 10 8 7 6 6 6 5 7 8 8 7 7 7 6 6 6 6 6 5 5 5 4 3 3 2 2 1 1 2 2 2 2 3 3 3 3 3 4 4 5 5 5 5 4 3 3 3 3 3 3 4 5
10 10 10 10 11 11 11 11 11 11 11 11 11 11 11 11 10 9 8 6 6 6 6 6 7 7 7 7 7 6 6 6 6 6 6 5 5 4 3 2 2 1 1 1 2 2 3 3 3 4 4 4 4 4 4 4 5 6 5 4 4 4 4 4 3 3 4 4 4
10 10 10 10 11 11 11 11 11 11 11 11 11 11 11 10 9 8 7 6 6 6 6 6 6 7 7 6 6 6 6 5 5 5 5 5 4 3 2 1 1 1 2 2 2 3 3 4 4 5 5 4 5 4 4 4 5 5 5 4 4 4 5 4 4 3 3 4 4
10 10 10 11 11 12 11 11 10 10 10 11 11 10 9 9 8 7 7 7 7 6 6 5 6 6 6 5 5 5 5 5 5 5 4 4 3 2 2 2 2 3 3 3 3 3 4 5 5 5 5 5 4 4 4 4 5 5 5 5 4 5 5 4 4 3 3 3 4
10 10 10 11 11 11 11 10 9 9 10 10 10 9 8 8 8 7 7 7 7 6 5 5 5 6 5 5 5 5 5 5 5 4 3 3 2 2 3 3 3 4 4 4 4 4 5 5 5 5 5 5 4 3 3 4 4 5 5 5 5 5 5 4 4 3 3 4 5
11 11 11 11 11 11 10 9 9 9 9 10 9 8 8 7 7 7 7 7 7 6 6 5 5 5 5 6 6 6 6 5 4 4 3 3 3 3 4 4 4 5 5 4 4 5 5 5 5 5 5 5 5 4 4 4 5 5 5 5 5 5 5 5 4 4 4 5 5
11 11 11 11 11 10 9 9 8 8 9 9 8 8 7 7 7 7 7 7 7 6 6 6 5 5 5 6 6 6 5 4 4 3 3 4 4 5 5 5 5 5 5 4 5 5 5 5 5 5 5 5 5 5 5 5 5 5 5 5 5 5 5 5 5 5 5 6 6
11 11 11 11 11 10 9 9 8 8 8 8 8 8 7 7 6 7 7 7 7 6 6 6 6 5 5 5 5 4 4 4 4 4 4 5 5 5 5 5 5 5 4 4 4 4 4 4 4 5 5 5 6 6 6 5 5 6 6 6 6 6 6 6 6 6 6 6 7
12 12 12 12 11 11 10 9 8 8 8 9 9 8 7 7 6 6 7 7 7 7 7 7 6 6 5 5 4 4 3 4 4 5 5 5 5 5 5 4 4 4 4 4 4 4 4 4 4 4 5 6 6 6 6 6 6 6 6 7 7 7 7 6 6 7 7 7 7
12 12 12 12 12 12 11 10 9 9 10 10 9 8 8 7 7 7 7 8 8 8 8 8 6 6 5 5 4 4 4 5 5 5 5 4 4 4 4 4 3 3 4 4 4 4 4 4 4 5 5 6 6 6 6 6 6 7 7 7 7 7 7 7 7 7 7 7 7
12 12 12 12 12 12 11 11 11 11 10 10 9 9 8 8 8 8 8 8 8 8 8 7 6 5 5 5 5 5 5 5 5 5 4 4 3 4 3 3 3 3 4 4 4 5 5 5 5 5 6 6 6 6 6 7 7 7 7 7 7 7 7 7 7 7 7 8 8
12 12 12 12 11 11 11 11 11 11 10 10 9 9 8 8 8 8 8 8 7 7 7 6 6 5 6 6 6 6 5 4 4 4 4 4 4 4 4 3 3 4 4 4 5 5 5 6 6 6 6 7 7 7 7 7 7 7 7 7 7 6 6 6 6 7 7 8 8
12 11 11 11 11 11 11 10 10 10 10 9 9 9 8 8 8 8 8 7 6 6 6 6 6 6 6 6 6 6 5 4 4 4 4 4 4 3 3 3 3 4 4 5 5 5 6 6 6 7 7 7 7 7 7 7 7 7 7 7 6 5 5 6 6 7 7 7 7
11 10 10 10 10 10 10 10 10 9 9 9 9 9 8 8 8 7 7 6 6 6 6 6 6 6 6 6 5 5 4 3 4 4 3 3 3 3 3 3 4 4 5 5 5 6 6 6 7 7 8 8 8 7 7 7 7 8 8 7 6 5 5 5 6 6 6 7 7
10 9 9 9 9 9 9 9 9 9 9 9 9 9 8 8 7 6 6 6 6 6 6 6 6 5 5 4 4 4 4 4 4 4 3 3 3 3 3 3 4 5 5 5 5 5 6 6 7 8 8 8 8 8 7 7 7 7 7 8 6 5 4 5 5 6 6 6 7
9 8 8 7 8 9 9 9 9 9 9 9 9 8 8 7 7 7 7 7 7 7 7 5 5 4 4 4 4 4 4 4 4 3 3 4 4 4 4 4 5 5 5 4 4 5 6 6 7 7 7 7 7 7 7 7 7 7 7 7 7 6 5 5 6 6 6 7 7
8 8 7 7 8 8 9 9 9 9 9 8 8 7 7 7 7 7 7 8 8 8 7 6 5 4 4 4 4 4 3 3 3 3 3 3 4 4 4 4 4 4 3 3 4 6 7 8 7 7 7 7 7 7 7 7 7 7 6 7 7 7 7 7 7 7 7 7 7
8 8 8 8 8 8 8 9 8 8 8 7 7 7 7 8 8 8 8 9 8 7 6 6 5 5 4 4 4 4 4 3 3 3 4 4 4 4 4 4 4 3 3 3 5 7 8 9 9 8 8 7 7 7 7 6 6 6 7 7 7 7 7 8 8 8 8 7 7
8 8 8 8 8 8 8 8 8 7 7 7 7 8 8 8 8 9 9 8 8 7 6 5 5 4 4 4 4 4 3 3 3 3 4 4 4 5 5 4 3 3 3 4 6 8 9 9 9 9 9 8 7 7 6 6 6 6 7 7 7 7 8 8 9 9 8 7 7
8 8 8 8 8 8 8 8 7 8 8 8 8 8 8 9 9 9 9 8 7 6 6 5 4 4 3 3 4 3 3 3 3 3 4 4 5 5 5 4 3 3 3 5 7 8 9 9 9 10 9 9 7 7 6 6 6 6 6 6 7 7 8 8 8 8 8 8 7
9 8 8 8 9 9 8 8 8 8 8 8 8 8 9 9 9 9 8 8 7 6 6 4 4 3 3 3 3 3 3 3 3 3 4 4 5 5 5 4 4 3 4 5 7 8 9 9 10 10 10 10 8 6 6 6 5 6 6 6 6 7 7 7 7 7 7 8 7
9 9 9 10 10 9 9 9 9 9 8 8 8 8 9 9 9 9 8 8 7 6 5 4 4 4 4 4 3 3 3 3 3 3 4 4 5 5 5 5 4 4 4 6 7 8 9 9 10 10 10 10 9 7 6 6 6 6 6 6 7 7 8 8 8 8 8 7 7
10 10 10 11 11 10 10 10 9 8 8 7 8 8 9 9 9 9 8 7 7 5 5 4 4 5 4 3 3 3 3 2 2 3 3 4 5 5 5 5 5 5 5 6 7 9 9 10 10 10 11 11 9 7 6 6 6 6 6 6 7 8 8 8 8 8 8 8 7
10 11 11 11 11 11 10 9 8 8 7 8 8 8 9 9 9 8 7 6 6 5 5 5 5 5 5 4 3 3 3 3 3 3 3 4 5 5 6 6 5 5 5 6 7 9 9 10 10 10 11 11 10 8 7 6 6 6 6 7 8 8 8 7 7 7 8 8 8
11 11 11 11 11 10 10 9 8 8 8 8 8 9 9 8 8 7 6 6 5 6 6 6 6 5 4 4 3 3 3 3 3 3 4 4 5 6 6 6 5 5 5 6 8 9 9 10 10 10 11 12 10 8 7 6 6 6 6 7 7 7 7 7 7 7 7 8 8
11 11 11 11 11 10 9 8 8 8 8 8 8 9 8 8 8 7 7 6 6 6 6 6 5 4 3 3 3 4 4 4 4 4 4 4 5 6 6 5 4 4 5 6 8 9 9 10 10 11 11 11 9 8 6 6 6 6 6 7 7 7 7 6 7 7 7 8 8
11 11 11 11 10 10 9 9 8 8 8 9 9 9 8 8 8 8 7 7 6 6 6 5 4 3 3 3 3 4 4 4 4 4 4 5 5 6 6 6 5 4 5 6 8 9 9 10 10 11 11 10 8 6 6 6 6 7 7 8 7 7 7 7 6 7 7 8 8
11 11 11 11 10 10 9 9 9 9 9 9 9 9 8 8 8 7 7 7 6 6 6 5 5 4 4 4 4 4 4 4 4 5 5 5 6 6 7 6 6 5 5 6 7 8 9 10 10 11 11 9 7 6 5 5 5 6 7 8 8 8 7 7 7 7 7 7 7
11 11 11 11 11 10 10 10 9 9 9 9 9 9 9 8 8 7 6 6 6 6 6 6 5 5 5 4 4 3 3 4 4 5 5 6 6 6 7 7 6 5 5 6 7 8 9 10 10 10 10 8 7 6 5 5 5 5 6 7 8 8 8 7 7 6 6 6 6
11 11 11 11 11 10 10 10 10 10 10 9 9 9 8 8 7 7 6 6 6 6 6 6 6 5 4 4 3 3 3 4 4 5 6 6 6 6 7 7 6 6 5 6 7 8 9 10 10 10 10 8 7 6 6 5 5 5 6 7 7 8 7 6 6 6 6 6 7
11 11 11 11 11 11 10 10 10 10 10 9 9 8 8 7 7 6 6 6 6 6 6 6 5 4 3 3 3 4 4 4 5 5 5 6 6 6 6 7 7 6 6 6 7 8 9 10 10 10 10 8 7 6 5 5 6 6 7 7 7 7 7 7 6 5 5 6 7
11 11 11 11 11 11 11 11 10 10 9 9 8 8 7 7 6 6 6 6 6 6 6 5 4 3 3 3 4 4 5 5 5 5 5 5 5 6 6 7 7 7 6 7 7 8 9 10 10 10 10 8 7 6 5 5 6 7 7 7 7 6 6 6 6 5 5 6 6
11 11 11 11 11 11 11 11 10 10 9 8 8 7 6 6 5 5 5 5 6 5 5 4 4 3 3 3 4 5 5 6 6 5 5 5 5 5 6 6 7 7 7 7 7 8 9 9 10 10 10 8 7 6 5 5 6 7 7 8 7 6 6 6 6 6 6 6 5
Wind_Direction
131 128 124 122 117 111 106 105 110 114 120 128 130 130 128 126 130 135 140 141 139 142 148 157 145 132 132 157 171 167 160 150 139 133 132 133 134 136 138 137 137 135 133 131 136 140 141 132 113 102 79 31 26 55 78 308 293 288 286 289 301 310 308 296 288 280 272 266 265
125 120 116 115 111 107 106 110 116 122 126 130 130 129 128 129 136 141 144 143 140 139 140 136 126 130 148 169 177 176 170 161 148 143 139 138 138 140 141 140 138 139 140 143 147 149 149 150 123 95 78 1 245 206 170 187 269 277 279 282 299 307 304 294 288 283 277 269 259
119 116 114 116 117 117 119 121 125 127 128 125 123 124 126 130 138 143 144 138 134 131 129 126 132 149 165 177 183 184 179 168 158 151 147 144 145 146 147 147 148 149 150 151 148 145 138 139 10 0 333 256 250 230 199 189 261 276 285 291 304 305 296 289 285 282 275 265 252
119 120 122 125 127 128 128 128 128 127 125 121 120 121 124 130 137 139 136 130 128 129 133 141 153 168 179 183 184 183 180 175 165 157 152 149 151 154 156 160 160 157 154 151 145 136 107 330 336 319 293 274 274 269 256 240 267 279 290 303 306 299 291 285 284 282 274 265 255
123 125 127 128 128 127 125 124 125 125 123 120 121 123 127 132 136 134 131 129 134 142 150 159 168 177 182 182 182 180 177 172 166 160 155 153 157 162 168 172 167 160 154 151 146 139 178 296 303 296 291 295 293 292 289 286 279 278 279 283 283 285 285 282 279 275 267 261 252
122 121 120 120 120 119 118 119 121 121 120 120 124 129 134 140 139 137 136 137 143 152 160 168 173 176 178 178 178 176 172 168 165 163 162 161 166 172 176 174 168 162 156 150 155 173 239 278 281 281 281 283 277 277 279 281 279 276 271 261 254 260 269 272 272 270 264 259 256
113 113 113 113 114 115 115 117 117 117 117 121 130 137 141 143 141 141 141 142 148 157 166 172 174 174 174 175 175 172 168 166 168 170 172 172 174 176 176 172 169 166 164 160 185 211 247 280 278 271 264 261 262 256 252 256 265 270 271 267 258 256 263 270 272 269 267 267 269
104 106 109 111 112 114 115 117 117 118 122 129 138 142 143 142 143 143 145 146 154 162 169 172 173 173 174 174 172 169 167 168 173 177 180 180 178 177 175 173 172 169 166 180 235 260 273 279 276 270 264 258 258 250 245 244 255 263 268 272 269 262 257 261 261 262 266 270 271
101 103 107 109 112 114 116 119 122 127 132 138 142 144 144 144 145 146 148 152 160 164 167 169 173 174 174 174 170 168 169 172 176 179 182 183 182 179 176 176 175 173 172 191 250 266 267 266 262 260 260 259 257 253 249 246 253 260 266 271 273 268 258 249 247 252 260 266 270
106 108 109 111 114 117 120 123 128 133 136 140 143 145 146 146 147 149 151 155 158 161 165 168 172 174 174 173 170 170 173 177 179 181 182 184 182 179 176 177 185 195 201 209 242 253 257 256 253 250 249 252 257 258 257 253 258 263 266 271 275 273 268 256 247 248 255 263 271
110 113 115 118 122 125 127 130 134 137 139 141 144 146 146 146 147 149 150 150 154 159 164 168 172 174 174 172 171 173 176 181 183 183 183 181 178 175 176 184 215 230 234 228 237 245 250 251 251 249 247 248 254 258 258 256 260 264 267 268 269 271 270 264 257 253 256 265 274
114 117 121 125 129 131 133 135 137 138 140 141 143 144 143 144 146 147 148 149 155 159 164 170 175 175 172 170 172 176 180 184 185 183 180 175 171 173 187 208 229 237 237 233 232 238 244 248 252 254 254 254 254 257 259 260 264 266 267 265 265 267 269 270 266 264 267 276 280
119 122 125 129 132 133 134 134 134 135 137 139 140 140 140 141 145 147 150 154 158 160 164 173 179 178 174 171 175 179 183 186 185 183 177 169 174 189 206 218 226 231 232 230 228 235 242 249 255 263 268 271 270 269 269 269 269 269 269 268 268 270 274 278 279 279 278 278 279
122 125 127 130 132 132 131 130 130 132 135 137 137 137 138 141 148 152 156 160 161 161 165 173 181 182 179 177 179 180 182 182 181 181 180 182 194 206 215 221 223 226 228 228 228 235 244 253 261 271 280 285 285 283 278 272 269 269 270 271 272 276 280 285 289 288 285 280 281
125 127 129 131 132 131 129 129 129 132 135 136 137 139 141 146 153 158 161 163 161 162 166 173 178 181 182 181 180 178 177 175 180 189 198 203 208 213 219 223 222 224 227 229 229 235 244 257 268 278 286 291 292 288 282 271 266 265 266 269 273 277 282 287 291 291 289 286 287
127 130 132 133 132 131 130 131 131 135 138 139 142 144 147 151 157 162 165 164 163 166 171 175 175 175 177 180 176 173 173 178 193 205 212 213 212 216 221 225 224 226 230 235 237 241 246 256 268 279 287 291 291 288 283 274 266 262 262 264 268 273 277 283 287 289 289 288 289
130 132 134 134 134 134 134 135 137 139 142 144 147 150 152 155 160 166 169 167 168 172 175 175 171 170 170 169 169 174 184 196 207 215 218 218 218 219 223 227 229 233 239 247 253 257 260 263 268 274 280 284 284 283 280 275 268 264 261 262 266 269 274 278 283 286 287 288 287
133 135 137 137 138 138 139 141 143 145 147 150 152 154 157 160 164 168 171 172 174 175 174 170 167 165 165 166 172 187 202 210 215 219 222 224 226 228 230 232 234 239 247 256 265 273 278 279 278 277 276 276 276 276 274 271 267 264 263 263 265 269 272 276 279 282 284 284 285
137 139 140 142 143 144 145 146 148 149 151 153 155 157 161 165 167 170 172 176 176 173 168 162 162 165 172 177 184 196 209 217 219 222 223 225 229 233 235 236 238 243 251 261 270 277 281 283 282 279 276 274 273 272 271 268 266 264 264 265 267 270 273 276 277 278 279 280 282
141 143 144 145 147 148 149 150 151 152 153 154 156 159 163 168 171 172 172 173 171 167 162 160 165 174 184 191 195 201 208 217 222 223 222 221 226 230 235 239 244 249 256 263 270 274 278 280 280 278 276 274 274 274 273 271 270 269 268 268 269 269 268 267 267 268 269 272 277
144 146 147 148 149 150 150 151 151 152 153 155 158 162 166 171 173 171 168 164 163 164 167 171 179 185 191 197 202 205 207 212 218 221 222 221 225 231 238 247 255 259 262 265 269 273 277 279 280 278 276 274 274 274 275 275 275 276 276 274 269 259 251 248 251 254 257 263 271
146 147 148 149 150 150 150 149 150 152 154 158 161 164 168 172 170 165 158 154 161 171 179 185 189 192 195 199 205 207 206 207 212 217 222 227 230 234 241 250 259 265 268 270 273 276 278 279 277 274 272 270 270 271 274 276 278 280 281 281 273 257 240 237 242 247 253 261 270
146 146 146 148 149 149 149 149 152 155 159 162 165 167 168 168 163 158 154 158 170 181 187 191 194 195 197 201 208 211 211 210 211 213 218 228 235 238 240 246 256 263 269 276 282 286 286 282 276 272 268 266 269 272 275 278 279 282 285 289 287 274 252 237 240 246 253 262 269
144 144 145 147 151 151 152 154 158 161 164 165 166 167 167 164 161 160 164 173 181 186 189 190 188 191 196 200 206 213 220 223 223 221 222 229 237 241 244 246 253 260 268 277 285 289 288 286 283 281 281 281 282 283 284 283 285 288 293 297 298 291 277 258 252 253 257 265 272
144 145 148 151 154 156 158 161 164 166 167 166 166 167 167 166 167 171 177 182 187 188 189 188 183 185 192 199 202 210 222 236 246 249 248 246 248 250 252 254 257 262 269 277 282 283 283 286 292 296 298 297 295 293 291 290 297 302 304 303 299 295 290 284 278 276 276 278 281
149 152 154 156 159 161 163 166 168 168 166 165 168 171 173 173 176 181 185 188 189 188 187 187 185 188 193 200 203 209 219 233 249 261 268 269 268 266 265 265 268 272 280 288 289 289 289 291 295 297 297 295 294 294 297 302 310 310 306 300 296 294 293 293 292 291 290 290 290
156 158 160 161 164 166 169 170 171 170 169 170 175 178 181 181 185 188 190 191 187 185 185 189 189 191 197 206 211 216 221 228 240 253 264 273 277 278 277 276 276 279 286 294 295 297 298 299 299 298 296 295 298 303 307 309 308 305 299 293 292 291 290 290 290 292 294 296 297
163 163 164 166 171 172 173 174 176 177 178 180 182 184 185 187 190 192 193 190 185 183 185 190 190 194 203 214 217 223 229 234 240 249 257 265 271 275 278 280 281 285 293 299 301 302 304 305 303 302 302 304 306 307 306 304 302 299 295 290 288 286 284 284 287 292 296 299 298
169 169 170 174 178 179 179 181 184 185 184 185 185 185 186 190 194 196 195 190 188 188 189 189 187 196 209 219 221 225 229 232 239 249 259 265 270 274 279 284 288 295 303 306 306 306 306 307 306 308 310 313 311 309 307 306 304 299 294 291 288 287 287 289 292 295 298 298 297
175 176 178 182 184 184 185 188 189 188 186 185 185 186 188 193 197 198 197 194 194 195 194 188 193 206 216 224 228 233 236 236 239 252 265 276 282 287 292 296 301 306 309 308 307 307 308 308 310 312 314 315 312 308 306 304 301 298 296 294 294 296 298 300 300 299 298 297 297
181 183 185 188 188 188 188 190 190 187 185 184 186 188 192 196 199 200 200 200 199 197 194 191 206 217 225 229 237 248 257 262 260 265 275 286 294 299 302 304 304 307 309 309 308 308 309 310 312 314 315 315 311 306 302 299 298 297 296 298 301 303 303 302 301 300 298 297 298
187 189 191 193 192 191 189 189 187 186 185 187 189 193 197 201 202 202 201 201 201 198 197 201 214 223 229 232 240 254 268 279 282 285 290 295 299 301 303 302 303 307 311 312 310 310 311 313 314 315 315 314 309 304 299 296 297 297 298 300 301 301 300 298 296 296 297 300 303
191 194 196 198 196 193 189 186 185 187 189 192 194 198 202 205 204 202 200 200 201 203 207 212 221 231 240 249 264 278 289 294 295 296 297 298 300 301 301 301 304 311 315 312 310 310 312 314 315 315 314 312 306 301 297 297 300 302 303 303 300 298 296 294 295 297 299 302 303
194 197 200 201 199 194 188 184 186 189 193 197 199 202 204 206 204 201 198 199 203 208 214 221 230 241 257 276 289 297 300 301 300 298 297 297 298 299 299 300 302 308 309 308 309 311 313 315 316 316 315 311 305 300 300 305 307 306 304 302 300 299 297 296 296 296 296 295 294
197 199 201 203 201 195 189 185 188 192 197 201 203 204 205 206 205 204 202 201 203 209 215 221 228 238 250 260 269 278 286 293 297 298 298 297 297 296 296 297 298 302 306 307 310 312 315 316 317 317 315 310 304 301 303 307 305 302 301 300 298 297 296 295 293 290 287 285 287
198 200 201 203 200 195 190 187 191 196 200 204 204 204 205 207 207 207 205 202 204 209 214 216 219 226 233 240 245 257 271 286 295 298 298 296 295 295 296 297 299 303 308 309 312 314 316 317 318 318 316 310 304 302 301 300 297 297 297 298 296 295 294 293 288 284 282 283 288
197 199 201 201 198 195 191 190 194 198 202 206 205 204 204 207 207 205 203 202 208 212 217 217 220 226 235 244 253 264 277 287 293 294 294 293 293 294 296 297 299 303 307 311 313 316 317 319 319 319 316 310 305 302 300 297 296 298 299 297 295 294 294 292 288 286 286 289 292
196 198 199 199 196 193 191 192 196 200 204 207 206 205 204 205 203 199 197 202 212 219 222 223 227 232 240 253 265 271 272 271 277 282 287 290 291 294 295 296 298 301 306 312 315 317 318 319 319 318 316 309 307 305 304 303 302 301 298 294 292 293 294 294 294 294 292 292 292
194 196 197 197 194 192 191 193 198 202 205 207 207 205 203 202 199 194 194 202 215 224 229 232 234 235 239 248 260 264 264 262 265 272 279 285 289 291 293 294 297 301 307 313 315 317 317 317 317 317 315 309 307 306 306 305 303 299 295 291 290 292 294 295 295 293 290 287 285
192 194 196 196 193 191 192 195 199 203 205 207 206 203 200 198 195 190 191 201 214 224 233 239 237 233 229 236 253 263 269 272 272 272 275 281 284 285 286 289 296 301 307 312 313 314 315 315 316 316 315 309 308 307 306 305 302 299 296 292 292 292 294 294 293 289 284 281 278
190 193 194 195 193 192 193 196 199 202 204 205 204 199 193 190 186 185 189 198 208 217 227 235 229 222 221 232 250 263 273 280 283 283 282 280 280 278 279 285 293 299 303 307 310 311 312 314 315 315 314 310 308 306 305 304 303 300 298 294 294 293 293 293 289 284 278 275 274